User: anonymous   Login
Location: ?
(35.4554°N, 139.3092°E)
Time: 04:16:12
(UTC+00:00)
Language:

CZ-4B R/B - Orbit

View from above orbital plane
View from above orbital plane
View from above satellite
View from above satellite

Ground track
Ground track

The orbit data is extracted from the following two-line orbital elements,

1 37181U 10051C   21174.57040417 -.00000388  00000-0 -23465-4 0  9995
2 37181  97.7973 162.4088 0107419 149.7795 329.7461 14.98743012584768
Epoch (UTC): 23 June 2021 13:41:22
Eccentricity: 0.0107419
inclination: 97.7973°
perigee height: 496 km
apogee height: 645 km
right ascension of ascending node: 162.4088°
argument of perigee: 149.7795°
revolutions per day: 14.98743012
mean anomaly at epoch: 329.7461°
orbit number at epoch: 58476

The dashed part of the orbit path shows where the satellite is in the earth's shadow,  

DLR